ACA272 CYQX-CYHZ

Flight info

Callsign ACA272
Flight time 1h 20m
Altitude 38000
Route SILRO DCT CAYLY CABOT5
Aircraft A320/M-SDE2E3FGHIRWXY/LB1

Departure

Time 2026-04-21 17:15
Airport Gander International Airport (CYQX)

Arrival

Time 2026-04-21 18:36
Airport Halifax / Stanfield International Airport (CYHZ)
Time Latitude Longitude Altitude Speed Heading
2026-04-21 16:48 48.94663 -54.57110 470 ft 0 kts 155°
2026-04-21 16:51 48.94664 -54.57110 470 ft 0 kts 155°
2026-04-21 17:02 48.94673 -54.57116 470 ft 4 kts 156°
2026-04-21 17:02 48.94698 -54.57132 466 ft 4 kts 157°
2026-04-21 17:03 48.94722 -54.57149 467 ft 4 kts 145°
2026-04-21 17:03 48.94737 -54.57173 468 ft 1 kts 108°
2026-04-21 17:03 48.94737 -54.57174 468 ft 0 kts 108°
2026-04-21 17:09 48.94714 -54.57068 469 ft 14 kts 110°
2026-04-21 17:09 48.94637 -54.57003 467 ft 14 kts 179°
2026-04-21 17:09 48.94547 -54.56979 467 ft 13 kts 156°
2026-04-21 17:10 48.94464 -54.56917 468 ft 14 kts 152°
2026-04-21 17:10 48.94379 -54.56850 467 ft 14 kts 153°
2026-04-21 17:10 48.94290 -54.56781 466 ft 14 kts 153°
2026-04-21 17:10 48.94200 -54.56711 465 ft 15 kts 153°
2026-04-21 17:11 48.94102 -54.56635 463 ft 16 kts 153°
2026-04-21 17:11 48.94000 -54.56562 461 ft 14 kts 178°
2026-04-21 17:11 48.93903 -54.56588 460 ft 14 kts 191°
2026-04-21 17:11 48.93802 -54.56617 459 ft 15 kts 191°
2026-04-21 17:12 48.93695 -54.56648 457 ft 16 kts 190°
2026-04-21 17:12 48.93584 -54.56679 456 ft 17 kts 190°
2026-04-21 17:12 48.93466 -54.56711 454 ft 18 kts 190°
2026-04-21 17:12 48.93343 -54.56745 453 ft 18 kts 190°
2026-04-21 17:13 48.93228 -54.56780 451 ft 17 kts 191°
2026-04-21 17:13 48.93112 -54.56816 449 ft 17 kts 191°
2026-04-21 17:13 48.92991 -54.56853 448 ft 18 kts 191°
2026-04-21 17:13 48.92874 -54.56858 431 ft 16 kts 158°
2026-04-21 17:14 48.92793 -54.56777 445 ft 13 kts 146°
2026-04-21 17:14 48.92737 -54.56684 438 ft 11 kts 107°
2026-04-21 17:14 48.92733 -54.56610 436 ft 1 kts 32°
2026-04-21 17:14 48.92766 -54.56587 439 ft 8 kts 21°
2026-04-21 17:15 48.92836 -54.56562 442 ft 26 kts 10°
2026-04-21 17:15 48.93233 -54.56447 455 ft 90 kts 10°
2026-04-21 17:15 48.94056 -54.56216 567 ft 136 kts 10°
2026-04-21 17:15 48.94965 -54.55955 1310 ft 130 kts
2026-04-21 17:16 48.95921 -54.55866 1846 ft 151 kts 351°
2026-04-21 17:16 48.96922 -54.56693 2078 ft 187 kts 310°
2026-04-21 17:16 48.97299 -54.58765 2300 ft 229 kts 266°
2026-04-21 17:16 48.96769 -54.61134 2911 ft 250 kts 242°
2026-04-21 17:17 48.95759 -54.63293 3959 ft 249 kts 232°
2026-04-21 17:17 48.94617 -54.65267 5058 ft 246 kts 229°
2026-04-21 17:17 48.93462 -54.67215 6005 ft 249 kts 228°
2026-04-21 17:17 48.92331 -54.69234 6955 ft 252 kts 229°
2026-04-21 17:18 48.91235 -54.71337 7861 ft 255 kts 231°
2026-04-21 17:18 48.90170 -54.73514 8838 ft 257 kts 231°
2026-04-21 17:18 48.89136 -54.75715 9820 ft 260 kts 231°
2026-04-21 17:18 48.88084 -54.77995 10527 ft 272 kts 231°
2026-04-21 17:19 48.86954 -54.80451 10885 ft 295 kts 231°
2026-04-21 17:19 48.85746 -54.83077 11433 ft 310 kts 231°
2026-04-21 17:19 48.84499 -54.85793 12186 ft 317 kts 231°
2026-04-21 17:19 48.83230 -54.88557 13026 ft 321 kts 231°
2026-04-21 17:20 48.81938 -54.91362 13887 ft 326 kts 231°
2026-04-21 17:20 48.80630 -54.94195 14650 ft 330 kts 231°
2026-04-21 17:20 48.79304 -54.97058 15446 ft 333 kts 230°
2026-04-21 17:20 48.77960 -54.99956 16248 ft 336 kts 230°
2026-04-21 17:21 48.76622 -55.02835 17027 ft 340 kts 230°
2026-04-21 17:21 48.75254 -55.05775 17802 ft 343 kts 230°
2026-04-21 17:21 48.73868 -55.08749 18548 ft 347 kts 230°
2026-04-21 17:21 48.72465 -55.11756 19232 ft 349 kts 229°
2026-04-21 17:22 48.71535 -55.13751 19719 ft 349 kts 229°
2026-04-21 17:22 48.69659 -55.17771 20673 ft 350 kts 229°
2026-04-21 17:22 48.68247 -55.20791 21356 ft 352 kts 228°
2026-04-21 17:22 48.66824 -55.23828 22017 ft 354 kts 228°
2026-04-21 17:23 48.65415 -55.26831 22663 ft 356 kts 228°
2026-04-21 17:23 48.63975 -55.29896 23327 ft 358 kts 227°
2026-04-21 17:23 48.62528 -55.32975 23930 ft 360 kts 227°
2026-04-21 17:23 48.61070 -55.36071 24463 ft 362 kts 227°
2026-04-21 17:24 48.59608 -55.39176 24982 ft 363 kts 227°
2026-04-21 17:24 48.58138 -55.42295 25493 ft 364 kts 227°
2026-04-21 17:24 48.56664 -55.45417 26050 ft 365 kts 227°
2026-04-21 17:24 48.55192 -55.48536 26605 ft 364 kts 227°
2026-04-21 17:25 48.53715 -55.51657 27106 ft 365 kts 227°
2026-04-21 17:25 48.52230 -55.54790 27578 ft 367 kts 227°
2026-04-21 17:25 48.50745 -55.57920 28102 ft 368 kts 227°
2026-04-21 17:25 48.49278 -55.61010 28725 ft 365 kts 227°
2026-04-21 17:26 48.47801 -55.64120 29192 ft 366 kts 227°
2026-04-21 17:26 48.46312 -55.67247 29591 ft 368 kts 227°
2026-04-21 17:26 48.44811 -55.70392 29982 ft 370 kts 227°
2026-04-21 17:26 48.43301 -55.73555 30355 ft 372 kts 227°
2026-04-21 17:27 48.41787 -55.76725 30789 ft 371 kts 227°
2026-04-21 17:27 48.40288 -55.79867 31375 ft 366 kts 227°
2026-04-21 17:27 48.38833 -55.82919 31953 ft 360 kts 228°
2026-04-21 17:27 48.37377 -55.85964 32476 ft 356 kts 228°
2026-04-21 17:28 48.35934 -55.88976 32981 ft 353 kts 228°
2026-04-21 17:28 48.34499 -55.91963 33439 ft 350 kts 228°
2026-04-21 17:28 48.33076 -55.94920 33894 ft 347 kts 228°
2026-04-21 17:28 48.31662 -55.97855 34312 ft 345 kts 228°
2026-04-21 17:29 48.30249 -56.00780 34529 ft 347 kts 228°
2026-04-21 17:29 48.28821 -56.03730 34664 ft 350 kts 228°
2026-04-21 17:29 48.27400 -56.06664 34864 ft 352 kts 228°
2026-04-21 17:29 48.25955 -56.09648 35055 ft 354 kts 228°
2026-04-21 17:30 48.24505 -56.12643 35242 ft 356 kts 228°
2026-04-21 17:30 48.23046 -56.15655 35430 ft 357 kts 228°
2026-04-21 17:30 48.21582 -56.18672 35626 ft 359 kts 229°
2026-04-21 17:30 48.20107 -56.21710 35798 ft 360 kts 229°
2026-04-21 17:31 48.18630 -56.24749 35986 ft 362 kts 229°
2026-04-21 17:31 48.17138 -56.27814 36153 ft 364 kts 229°
2026-04-21 17:31 48.15643 -56.30882 36322 ft 365 kts 229°
2026-04-21 17:31 48.14142 -56.33960 36482 ft 367 kts 229°
2026-04-21 17:32 48.13143 -56.36005 36607 ft 368 kts 229°
2026-04-21 17:32 48.11137 -56.40110 36852 ft 369 kts 229°
2026-04-21 17:32 48.09609 -56.43232 37028 ft 370 kts 229°
2026-04-21 17:32 48.08084 -56.46344 37182 ft 372 kts 229°
2026-04-21 17:33 48.06549 -56.49472 37356 ft 373 kts 229°
2026-04-21 17:33 48.05528 -56.51552 37478 ft 374 kts 229°
2026-04-21 17:33 48.03983 -56.54695 37620 ft 375 kts 229°
2026-04-21 17:33 48.02429 -56.57851 37794 ft 377 kts 229°
2026-04-21 17:34 48.00367 -56.62037 37985 ft 378 kts 229°
2026-04-21 17:34 47.99309 -56.64181 38106 ft 379 kts 229°
2026-04-21 17:34 47.96183 -56.70506 38190 ft 381 kts 229°
2026-04-21 17:35 47.93046 -56.76845 38189 ft 379 kts 229°
2026-04-21 17:35 47.89913 -56.83160 38196 ft 378 kts 229°
2026-04-21 17:36 47.86778 -56.89459 38207 ft 378 kts 229°
2026-04-21 17:36 47.83638 -56.95753 38201 ft 378 kts 229°
2026-04-21 17:37 47.80518 -57.01994 38217 ft 378 kts 229°
2026-04-21 17:37 47.77374 -57.08271 38238 ft 378 kts 228°
2026-04-21 17:38 47.74222 -57.14546 38237 ft 379 kts 228°
2026-04-21 17:38 47.71058 -57.20830 38236 ft 379 kts 228°
2026-04-21 17:39 47.67894 -57.27102 38241 ft 379 kts 228°
2026-04-21 17:39 47.64752 -57.33317 38242 ft 379 kts 228°
2026-04-21 17:40 47.61578 -57.39577 38244 ft 379 kts 228°
2026-04-21 17:40 47.58405 -57.45825 38244 ft 379 kts 228°
2026-04-21 17:41 47.55223 -57.52074 38246 ft 379 kts 228°
2026-04-21 17:41 47.52038 -57.58315 38245 ft 379 kts 228°
2026-04-21 17:42 47.48875 -57.64500 38255 ft 380 kts 228°
2026-04-21 17:42 47.45681 -57.70730 38255 ft 380 kts 228°
2026-04-21 17:43 47.42490 -57.76941 38263 ft 380 kts 227°
2026-04-21 17:43 47.39287 -57.83162 38263 ft 380 kts 227°
2026-04-21 17:44 47.36079 -57.89377 38268 ft 380 kts 227°
2026-04-21 17:44 47.32864 -57.95593 38267 ft 381 kts 227°
2026-04-21 17:45 47.29660 -58.01771 38268 ft 382 kts 227°
2026-04-21 17:45 47.26431 -58.07987 38273 ft 382 kts 227°
2026-04-21 17:46 47.23199 -58.14192 38276 ft 382 kts 227°
2026-04-21 17:46 47.19961 -58.20395 38288 ft 382 kts 227°
2026-04-21 17:47 47.16718 -58.26594 38282 ft 382 kts 227°
2026-04-21 17:47 47.13489 -58.32754 38285 ft 382 kts 227°
2026-04-21 17:48 47.10237 -58.38941 38291 ft 383 kts 227°
2026-04-21 17:48 47.06982 -58.45122 38297 ft 383 kts 227°
2026-04-21 17:49 47.03719 -58.51301 38293 ft 385 kts 226°
2026-04-21 17:49 47.00465 -58.57577 38295 ft 390 kts 231°
2026-04-21 17:50 46.97784 -58.64533 38302 ft 394 kts 235°
2026-04-21 17:50 46.95251 -58.71667 38303 ft 395 kts 236°
2026-04-21 17:51 46.92749 -58.78816 38304 ft 395 kts 236°
2026-04-21 17:51 46.90230 -58.85956 38309 ft 395 kts 236°
2026-04-21 17:52 46.87688 -58.93107 38310 ft 396 kts 236°
2026-04-21 17:52 46.85158 -59.00194 38308 ft 396 kts 236°
2026-04-21 17:53 46.82604 -59.07327 38315 ft 396 kts 235°
2026-04-21 17:53 46.80049 -59.14449 38313 ft 396 kts 235°
2026-04-21 17:54 46.77484 -59.21576 38310 ft 396 kts 235°
2026-04-21 17:54 46.74918 -59.28691 38315 ft 396 kts 235°
2026-04-21 17:55 46.72346 -59.35799 38351 ft 396 kts 235°
2026-04-21 17:55 46.69779 -59.42874 38316 ft 399 kts 235°
2026-04-21 17:56 46.67177 -59.50026 38318 ft 399 kts 235°
2026-04-21 17:56 46.64570 -59.57180 38321 ft 400 kts 235°
2026-04-21 17:57 46.61952 -59.64340 38320 ft 401 kts 235°
2026-04-21 17:57 46.59326 -59.71505 38315 ft 401 kts 235°
2026-04-21 17:58 46.56698 -59.78654 38313 ft 401 kts 234°
2026-04-21 17:58 46.54061 -59.85812 38313 ft 401 kts 234°
2026-04-21 17:59 46.51441 -59.92902 38314 ft 401 kts 234°
2026-04-21 17:59 46.48797 -60.00037 38309 ft 401 kts 234°
2026-04-21 18:00 46.46144 -60.07180 38320 ft 401 kts 234°
2026-04-21 18:00 46.43507 -60.14261 38302 ft 401 kts 234°
2026-04-21 18:01 46.40852 -60.21367 38302 ft 401 kts 234°
2026-04-21 18:01 46.38193 -60.28469 38303 ft 400 kts 234°
2026-04-21 18:02 46.35532 -60.35558 38302 ft 400 kts 234°
2026-04-21 18:02 46.32873 -60.42622 38302 ft 400 kts 234°
2026-04-21 18:03 46.30207 -60.49686 38302 ft 400 kts 234°
2026-04-21 18:03 46.27540 -60.56735 38301 ft 400 kts 234°
2026-04-21 18:04 46.26222 -60.60211 38190 ft 400 kts 234°
2026-04-21 18:04 46.24885 -60.63732 37921 ft 399 kts 234°
2026-04-21 18:04 46.23555 -60.67238 37659 ft 397 kts 233°
2026-04-21 18:04 46.22228 -60.70729 37393 ft 394 kts 233°
2026-04-21 18:05 46.20916 -60.74181 37136 ft 391 kts 233°
2026-04-21 18:05 46.19612 -60.77604 36876 ft 387 kts 232°
2026-04-21 18:05 46.18316 -60.80999 36626 ft 384 kts 232°
2026-04-21 18:05 46.17034 -60.84357 36371 ft 380 kts 231°
2026-04-21 18:06 46.15758 -60.87690 36126 ft 377 kts 231°
2026-04-21 18:06 46.14495 -60.90985 35885 ft 374 kts 231°
2026-04-21 18:06 46.13256 -60.94212 35676 ft 370 kts 230°
2026-04-21 18:06 46.12012 -60.97453 35476 ft 366 kts 229°
2026-04-21 18:07 46.10786 -61.00646 35232 ft 362 kts 229°
2026-04-21 18:07 46.09572 -61.03801 34992 ft 358 kts 228°
2026-04-21 18:07 46.08368 -61.06927 34765 ft 354 kts 227°
2026-04-21 18:07 46.07175 -61.10017 34529 ft 350 kts 227°
2026-04-21 18:08 46.05995 -61.13072 34285 ft 347 kts 226°
2026-04-21 18:08 46.04840 -61.16053 34032 ft 344 kts 226°
2026-04-21 18:08 46.03669 -61.19061 33765 ft 345 kts 226°
2026-04-21 18:08 46.02493 -61.22072 33494 ft 346 kts 226°
2026-04-21 18:09 46.01309 -61.25100 33228 ft 347 kts 227°
2026-04-21 18:09 46.00123 -61.28137 32983 ft 349 kts 227°
2026-04-21 18:09 45.99331 -61.30163 32816 ft 352 kts 227°
2026-04-21 18:09 45.97739 -61.34236 32480 ft 355 kts 227°
2026-04-21 18:10 45.96529 -61.37340 32229 ft 356 kts 227°
2026-04-21 18:10 45.96260 -61.38028 32171 ft 357 kts 227°
2026-04-21 18:10 45.95379 -61.40289 31993 ft 357 kts 228°
2026-04-21 18:10 45.94192 -61.43343 31722 ft 351 kts 228°
2026-04-21 18:11 45.93021 -61.46373 31409 ft 344 kts 228°
2026-04-21 18:11 45.91865 -61.49348 31029 ft 339 kts 228°
2026-04-21 18:11 45.90716 -61.52289 30638 ft 335 kts 228°
2026-04-21 18:11 45.89580 -61.55184 30246 ft 331 kts 228°
2026-04-21 18:12 45.88459 -61.58034 29821 ft 326 kts 228°
2026-04-21 18:12 45.87355 -61.60845 29475 ft 320 kts 228°
2026-04-21 18:12 45.86267 -61.63603 29119 ft 318 kts 228°
2026-04-21 18:12 45.85174 -61.66362 28740 ft 317 kts 229°
2026-04-21 18:13 45.84095 -61.69080 28374 ft 316 kts 229°
2026-04-21 18:13 45.83007 -61.71827 28000 ft 314 kts 229°
2026-04-21 18:13 45.81929 -61.74552 27636 ft 312 kts 229°
2026-04-21 18:13 45.80859 -61.77256 27279 ft 310 kts 230°
2026-04-21 18:14 45.78755 -61.82574 26524 ft 303 kts 230°
2026-04-21 18:14 45.77731 -61.85155 26170 ft 301 kts 230°
2026-04-21 18:14 45.76693 -61.87765 25809 ft 300 kts 230°
2026-04-21 18:15 45.75663 -61.90351 25447 ft 298 kts 230°
2026-04-21 18:15 45.74639 -61.92923 25094 ft 296 kts 230°
2026-04-21 18:15 45.73622 -61.95475 24755 ft 294 kts 231°
2026-04-21 18:15 45.72608 -61.98016 24385 ft 293 kts 231°
2026-04-21 18:16 45.71598 -62.00545 24034 ft 292 kts 231°
2026-04-21 18:16 45.70605 -62.03029 23627 ft 290 kts 231°
2026-04-21 18:16 45.69603 -62.05531 23252 ft 290 kts 231°
2026-04-21 18:16 45.68599 -62.08034 22891 ft 291 kts 232°
2026-04-21 18:17 45.67587 -62.10556 22519 ft 292 kts 232°
2026-04-21 18:17 45.66571 -62.13085 22150 ft 294 kts 232°
2026-04-21 18:17 45.65551 -62.15624 21778 ft 295 kts 233°
2026-04-21 18:17 45.64528 -62.18171 21409 ft 296 kts 233°
2026-04-21 18:18 45.63499 -62.20730 21042 ft 297 kts 233°
2026-04-21 18:18 45.62425 -62.23254 20677 ft 296 kts 229°
2026-04-21 18:18 45.61180 -62.25535 20397 ft 295 kts 225°
2026-04-21 18:18 45.59856 -62.27783 20042 ft 296 kts 225°
2026-04-21 18:19 45.58507 -62.30017 19653 ft 299 kts 225°
2026-04-21 18:19 45.57130 -62.32275 19262 ft 301 kts 225°
2026-04-21 18:19 45.55747 -62.34533 18873 ft 304 kts 225°
2026-04-21 18:19 45.54347 -62.36811 18452 ft 305 kts 225°
2026-04-21 18:20 45.53418 -62.38324 18170 ft 306 kts 225°
2026-04-21 18:20 45.52006 -62.40617 17623 ft 312 kts 226°
2026-04-21 18:20 45.50564 -62.42955 17037 ft 315 kts 226°
2026-04-21 18:20 45.48667 -62.46031 16526 ft 310 kts 226°
2026-04-21 18:21 45.47247 -62.48332 16121 ft 308 kts 226°
2026-04-21 18:21 45.46293 -62.49877 15854 ft 306 kts 226°
2026-04-21 18:21 45.44891 -62.52143 15460 ft 304 kts 227°
2026-04-21 18:21 45.43496 -62.54396 15069 ft 302 kts 227°
2026-04-21 18:22 45.42127 -62.56606 14667 ft 300 kts 227°
2026-04-21 18:22 45.40742 -62.58840 14285 ft 299 kts 227°
2026-04-21 18:22 45.39367 -62.61055 13865 ft 297 kts 227°
2026-04-21 18:22 45.38005 -62.63247 13475 ft 295 kts 228°
2026-04-21 18:23 45.36649 -62.65428 13098 ft 292 kts 228°
2026-04-21 18:23 45.35308 -62.67585 12709 ft 290 kts 228°
2026-04-21 18:23 45.34000 -62.69684 12347 ft 288 kts 229°
2026-04-21 18:23 45.32672 -62.71814 11959 ft 287 kts 229°
2026-04-21 18:24 45.31350 -62.73935 11582 ft 285 kts 229°
2026-04-21 18:24 45.30031 -62.76050 11219 ft 284 kts 229°
2026-04-21 18:24 45.28723 -62.78145 10851 ft 283 kts 229°
2026-04-21 18:24 45.27436 -62.80205 10542 ft 279 kts 230°
2026-04-21 18:25 45.26178 -62.82215 10477 ft 265 kts 230°
2026-04-21 18:25 45.24969 -62.84145 10378 ft 256 kts 230°
2026-04-21 18:25 45.23784 -62.86037 10078 ft 256 kts 230°
2026-04-21 18:25 45.22599 -62.87930 9722 ft 255 kts 230°
2026-04-21 18:26 45.21442 -62.89777 9425 ft 253 kts 230°
2026-04-21 18:26 45.20283 -62.91643 9140 ft 250 kts 232°
2026-04-21 18:26 45.19312 -62.93665 8878 ft 247 kts 241°
2026-04-21 18:26 45.18494 -62.95794 8588 ft 245 kts 243°
2026-04-21 18:27 45.17707 -62.97934 8289 ft 244 kts 244°
2026-04-21 18:27 45.16927 -63.00067 7995 ft 242 kts 243°
2026-04-21 18:27 45.16158 -63.02162 7727 ft 241 kts 244°
2026-04-21 18:27 45.15385 -63.04261 7442 ft 240 kts 244°
2026-04-21 18:28 45.14612 -63.06354 7159 ft 239 kts 243°
2026-04-21 18:28 45.13838 -63.08447 6879 ft 240 kts 244°
2026-04-21 18:28 45.13061 -63.10546 6592 ft 239 kts 244°
2026-04-21 18:28 45.12291 -63.12624 6301 ft 237 kts 244°
2026-04-21 18:29 45.11523 -63.14692 6014 ft 237 kts 244°
2026-04-21 18:29 45.10753 -63.16765 5725 ft 238 kts 244°
2026-04-21 18:29 45.09979 -63.18849 5440 ft 239 kts 244°
2026-04-21 18:29 45.09210 -63.20912 5250 ft 232 kts 245°
2026-04-21 18:30 45.08487 -63.22850 5176 ft 220 kts 245°
2026-04-21 18:30 45.07789 -63.24723 5087 ft 212 kts 245°
2026-04-21 18:30 45.07097 -63.26590 4985 ft 216 kts 244°
2026-04-21 18:30 45.06394 -63.28478 4835 ft 218 kts 245°
2026-04-21 18:31 45.05694 -63.30353 4599 ft 214 kts 244°
2026-04-21 18:31 45.04998 -63.32215 4328 ft 214 kts 245°
2026-04-21 18:31 45.04302 -63.34077 4078 ft 214 kts 245°
2026-04-21 18:31 45.03462 -63.35818 3844 ft 216 kts 228°
2026-04-21 18:32 45.02301 -63.37185 3641 ft 218 kts 219°
2026-04-21 18:32 45.01065 -63.38426 3406 ft 217 kts 217°
2026-04-21 18:32 44.99826 -63.39627 3218 ft 212 kts 217°
2026-04-21 18:32 44.98658 -63.40758 3034 ft 203 kts 218°
2026-04-21 18:33 44.97505 -63.41895 2716 ft 200 kts 217°
2026-04-21 18:33 44.96377 -63.43010 2425 ft 195 kts 217°
2026-04-21 18:33 44.95282 -63.44093 2154 ft 190 kts 217°
2026-04-21 18:33 44.94244 -63.45121 1901 ft 184 kts 218°
2026-04-21 18:34 44.93229 -63.46126 1624 ft 171 kts 218°
2026-04-21 18:34 44.92277 -63.47061 1271 ft 164 kts 218°
2026-04-21 18:34 44.91364 -63.47959 1011 ft 154 kts 218°
2026-04-21 18:34 44.90528 -63.48806 845 ft 141 kts 220°
2026-04-21 18:35 44.90007 -63.49314 730 ft 135 kts 219°
2026-04-21 18:35 44.88999 -63.50301 517 ft 134 kts 220°
2026-04-21 18:35 44.88261 -63.51038 459 ft 119 kts 219°
2026-04-21 18:35 44.87729 -63.51572 471 ft 68 kts 214°
2026-04-21 18:36 44.87457 -63.51887 466 ft 38 kts 252°
2026-04-21 18:36 44.87462 -63.52076 473 ft 6 kts 301°
2026-04-21 18:36 44.87476 -63.52100 474 ft 3 kts 317°
2026-04-21 18:36 44.87512 -63.52110 471 ft 6 kts
2026-04-21 18:37 44.87545 -63.52084 475 ft 6 kts 34°
2026-04-21 18:37 44.87577 -63.52051 475 ft 6 kts 35°
2026-04-21 18:37 44.87611 -63.52020 469 ft 6 kts 33°
2026-04-21 18:37 44.87648 -63.51986 474 ft 8 kts 34°
2026-04-21 18:38 44.87713 -63.51917 471 ft 14 kts 37°
2026-04-21 18:38 44.87796 -63.51838 469 ft 15 kts 34°
2026-04-21 18:38 44.87881 -63.51754 471 ft 16 kts 36°
2026-04-21 18:38 44.87980 -63.51654 464 ft 20 kts 37°
2026-04-21 18:39 44.88112 -63.51522 457 ft 24 kts 38°
2026-04-21 18:39 44.88251 -63.51384 455 ft 24 kts 36°
2026-04-21 18:39 44.88369 -63.51266 455 ft 15 kts 36°
2026-04-21 18:39 44.88443 -63.51208 455 ft 11 kts
2026-04-21 18:40 44.88522 -63.51218 455 ft 11 kts 349°
2026-04-21 18:40 44.88603 -63.51239 455 ft 12 kts 352°
2026-04-21 18:40 44.88661 -63.51251 455 ft 13 kts 351°
2026-04-21 18:40 44.88785 -63.51282 455 ft 14 kts 347°
2026-04-21 18:41 44.88822 -63.51319 455 ft 4 kts 281°
2026-04-21 18:41 44.88819 -63.51361 455 ft 5 kts 259°
2026-04-21 18:41 44.88814 -63.51405 455 ft 2 kts 260°
2026-04-21 18:41 44.88812 -63.51418 455 ft 0 kts 260°